默认 日期 大小 文件数 浏览量 最新下载 xml
way-磁力链接相关资源由用户搜索指令自动获取,结果来源于网络,本站不存储任何资料,亦不承担任何责任,请于24小时内删除,搜索到35697个磁力,显示前4000条数据,用时25ms。
    {"Lockhart J. PHP. The Right Way 2025.pdf": 629684}
创建时间: 2025-12-20 17:57:04 大小:614.93 KB 文件数量:1 热度:0
    ... 38779684, "11 - That's the Way of the World (Live).flac ... ": 62963482, "That's The Way Of The World - Alive In ... ": 110936, "That's The Way Of The World - Alive In ... ": 154474, "That's The Way Of The World - Alive In ... 106657, "That's The Way Of The World - Alive In ...
创建时间: 2025-12-20 17:39:52 大小:415.11 MB 文件数量:17 热度:0
    {"~Get Your Files Here !": {"1 - Tools": {"1. Lead Magnet.mp4": 13694281, "2. Tools and Pricing.mp4": 27341690, "5. Affiliate Program.mp4": 15159174, "3. Choose a base creator.mp4": 21824484, "4. Canva Special mention.mp4": 30285758}, "3 - Audio": {"8. ...
创建时间: 2025-12-20 10:59:30 大小:534.4 MB 文件数量:29 热度:0
    {"Sample": {"the.wright.way.s01e02.720p.hdtv.x264-tla-sample.mkv": 17162487}, "www.Torrenting.com.txt": 575, "First Read This Guide.txt": 575, "the.wright.way.s01e02.720p.hdtv.x264-tla.mkv": 622615413, "the.wright.way.s01e02.720p.hdtv.x264-tla.nfo": 52}
创建时间: 2025-12-20 09:23:42 大小:610.14 MB 文件数量:5 热度:0
    ... Most Likely To Go Your Way And Ill Go Mine 1080p ... Most Likely To Go Your Way And Ill Go Mine 1080p ...
创建时间: 2025-12-19 18:59:08 大小:2.8 GB 文件数量:3 热度:0
    ... , "The Teskey Brothers - The Winding Way.jpg": 90766, "The Teskey Brothers ... - The Winding Way.nfo": 1426, "01. The Teskey ...
创建时间: 2025-12-19 18:06:21 大小:282.32 MB 文件数量:12 热度:0
    ... , "90.Day.Fiance.The.Other.Way.S07E15.1080p.AV1.10bit-MeGusta ... , "90.Day.Fiance.The.Other.Way.S07E15.1080p.AV1.10bit-MeGusta ...
创建时间: 2025-12-19 16:11:35 大小:411.07 MB 文件数量:6 热度:0
    {"Cover.jpg": 187628, "foo_dr.txt": 1228, "02 9 to 5.flac": 60777520, "05 Steppin' Up.flac": 56524199, "08 To The Bone.flac": 73625941, "07 Let It Slide.flac": 42700124, "04 Bramble Ramble.flac": 62379087, "06 The Slow Express.flac": 70211222, "03 Eye Of ...
创建时间: 2025-12-19 15:55:11 大小:479.76 MB 文件数量:10 热度:0
    {"归队.The.Long.Way.Back.S01E05.2025.2160p.WEB- ... ": 893931242, "归队.The.Long.Way.Back.S01E06.2025.2160p.WEB ...
创建时间: 2025-12-19 15:27:28 大小:1.73 GB 文件数量:5 热度:0
    ... 23416116, "That's The Way Of The World.txt": 538 ... , "That's The Way Of The World.m3u8": 232 ... 117075, "That's The Way Of The World 02.jpg ... , "02 - That's the Way of the World.flac": 35894602 ... 21456609, "13 - That's the Way of the World (Latin Expedition ...
创建时间: 2025-12-19 09:54:02 大小:289.64 MB 文件数量:18 热度:0
    ... .mp4": 1453465517, "Avatar 2 The Way of Water (2022) Trailer 2 ... mkv": 1086530491, "Avatar 2 The Way of Water (2022) Trailer 3 ... .mp4": 285145447, "avatar-2-the-way-of-water-2022-trailer_meta.xml ... .mp4": 2811660, "avatar-2-the-way-of-water-2022-trailer_meta.sqlite ...
创建时间: 2025-12-18 13:13:39 大小:6.08 GB 文件数量:32 热度:0
    {"cover.jpg": 209169, "Dead To Earth , VolkeinBlucht , Idvarp - Three Way Split.cue": 2159, "Dead To Earth , VolkeinBlucht , Idvarp - Three Way Split.log": 5946, "Dead To Earth , VolkeinBlucht , Idvarp - Three Way Split.flac": 365702108}
创建时间: 2025-12-18 11:29:55 大小:348.97 MB 文件数量:4 热度:0
    ... }, "Naughty Natasha Nice Tempts Her Way Into An Interracial DP Threesome ...
创建时间: 2025-12-18 11:27:23 大小:733.1 MB 文件数量:33 热度:0
    {"folder.jpg": 112981, "audiochecker.log": 451, "01. Ouple - Fair Way (Original Mix).flac": 52710655, "03. Ouple - Reluctant Immersion (Original Mix).flac": 58519143, "02. Ouple - Heterogenous Sparkle (Original Mix).flac": 49131229}
创建时间: 2025-12-18 08:47:40 大小:153.04 MB 文件数量:5 热度:0
    {"01.webp": 266182, "02.webp": 261506, "03.webp": 121810, "04.webp": 218288, "05.webp": 205178, "06.webp": 194204, "07.webp": 174100, "08.webp": 190286, "09.webp": 213330, "10.webp": 321180, "11.webp": 312382, "12.webp": 205090, "13.webp": 268206, "14.webp ...
创建时间: 2025-12-17 19:57:36 大小:11.02 MB 文件数量:45 热度:0
    {"nfo.txt": 421, "VIDEO_TS": {"VIDEO_TS.BUP": 18432, "VIDEO_TS.IFO": 18432, "VIDEO_TS.VOB": 434176, "VTS_01_0.BUP": 69632, "VTS_01_0.IFO": 69632, "VTS_01_0.VOB": 4175872, "VTS_01_1.VOB": 1073739776, "VTS_01_2.VOB": 1073739776, "VTS_01_3.VOB": 1073739776, " ...
创建时间: 2025-12-17 19:25:46 大小:4.05 GB 文件数量:19 热度:0
    ... , "06 - If I Had My Way.flac": 28191156, "04 - Love Your ...
创建时间: 2025-12-17 18:36:08 大小:251.33 MB 文件数量:13 热度:0
    {"Mayor.of.Kingstown.S04E07.My.Way.1080p.AMZN.WEB-DL.DDP5.1.H.264-playWEB.mkv": 3851342905, "Mayor.of.Kingstown.S04E07.My.Way.1080p.AMZN.WEB-DL.DDP5.1.H.264-playWEB.nfo": 4462}
创建时间: 2025-12-17 18:07:48 大小:3.59 GB 文件数量:2 热度:0
    ... 必备.mp4": 16884176, "A Way Into Your Sex Life.mp4 ...
创建时间: 2025-12-17 14:54:17 大小:842.35 MB 文件数量:33 热度:0
    ... .mkv": 4613450776, "No.Way.Back.1995.BDRE.720P.X264 ... .par2": 48484, "No.Way.Back.1995.BDRE.720P.X264 ... Sample.mkv": 51797601, "No.Way.Back.1995.BDRE.720P.X264 ... .PAR2": 1968552, "No.Way.Back.1995.BDRE.720P.X264 ... .PAR2": 11665708, "No.Way.Back.1995.BDRE.720P.X264 ...
创建时间: 2025-12-17 14:16:25 大小:4.39 GB 文件数量:9 热度:0